| time (UTC) | temp C | wind direction | speed KPH | gust KPH | rain 1hr cm | rain 24hr cm | rain mn cm | humidity % | barometer mb |
| 20260509034413 | 27 | 54 | 4.8 | 12.9 | 0.00 | 0.00 | 0.05 | 91 | 1010.0 |
| 20260509033915 | 27 | 43 | 6.4 | 11.3 | 0.00 | 0.00 | 0.05 | 91 | 1010.0 |
| 20260509033414 | 27 | 38 | 4.8 | 11.3 | 0.00 | 0.00 | 0.05 | 91 | 1010.0 |
| 20260509032913 | 27 | 41 | 4.8 | 11.3 | 0.00 | 0.00 | 0.05 | 91 | 1010.0 |
| 20260509032413 | 27 | 34 | 0.0 | 12.9 | 0.00 | 0.00 | 0.05 | 91 | 1009.0 |
| 20260509031913 | 27 | 42 | 0.0 | 12.9 | 0.00 | 0.00 | 0.05 | 91 | 1009.0 |
| 20260509031415 | 27 | 74 | 0.0 | 8.0 | 0.00 | 0.00 | 0.05 | 92 | 1009.0 |
| 20260509030913 | 26 | 43 | 0.0 | 8.0 | 0.00 | 0.00 | 0.05 | 92 | 1009.0 |
| 20260509030414 | 26 | 60 | 4.8 | 6.4 | 0.00 | 0.00 | 0.05 | 91 | 1009.0 |
| 20260509025913 | 26 | 57 | 1.6 | 4.8 | 0.00 | 0.00 | 0.05 | 91 | 1009.0 |
| 20260509025413 | 26 | 65 | 0.0 | 14.5 | 0.00 | 0.00 | 0.05 | 91 | 1009.0 |
| 20260509024914 | 26 | 53 | 0.0 | 14.5 | 0.00 | 0.00 | 0.05 | 91 | 1009.0 |
| 20260509024414 | 26 | 113 | 12.9 | 17.7 | 0.00 | 0.00 | 0.05 | 92 | 1009.0 |
| 20260509023914 | 26 | 59 | 9.7 | 17.7 | 0.00 | 0.00 | 0.05 | 92 | 1010.0 |
| 20260509023413 | 26 | 72 | 3.2 | 17.7 | 0.00 | 0.00 | 0.05 | 90 | 1010.0 |
| 20260509022916 | 27 | 336 | 3.2 | 16.1 | 0.00 | 0.00 | 0.03 | 91 | 1010.0 |
| 20260509022414 | 27 | 30 | 0.0 | 11.3 | 0.00 | 0.00 | 0.03 | 91 | 1010.0 |
| 20260509021446 | 27 | 6 | 0.0 | 11.3 | 0.00 | 0.00 | 0.03 | 91 | 1009.0 |
| 20260509020915 | 27 | 32 | 0.0 | 12.9 | 0.00 | 0.00 | 0.03 | 91 | 1009.0 |
| 20260509020416 | 27 | 44 | 1.6 | 12.9 | 0.00 | 0.00 | 0.03 | 91 | 1009.0 |
| 20260509015913 | 27 | 1 | 0.0 | 12.9 | 0.00 | 0.00 | 0.03 | 91 | 1009.0 |
| 20260509015413 | 27 | 31 | 0.0 | 14.5 | 0.00 | 0.00 | 0.03 | 91 | 1009.0 |
| 20260509014916 | 27 | 31 | 0.0 | 14.5 | 0.00 | 0.00 | 0.03 | 91 | 1009.0 |
| 20260509014419 | 27 | 356 | 0.0 | 11.3 | 0.00 | 0.00 | 0.03 | 91 | 1009.0 |
| 20260509013915 | 27 | 23 | 1.6 | 11.3 | 0.00 | 0.00 | 0.03 | 92 | 1009.0 |
| 20260509013414 | 27 | 338 | 8.0 | 11.3 | 0.00 | 0.00 | 0.03 | 92 | 1009.0 |
| 20260509012915 | 27 | 22 | 0.0 | 11.3 | 0.00 | 0.00 | 0.03 | 92 | 1009.0 |
| 20260509012414 | 27 | 359 | 1.6 | 11.3 | 0.00 | 0.00 | 0.03 | 92 | 1009.0 |
| 20260509011913 | 27 | 19 | 11.3 | 11.3 | 0.00 | 0.00 | 0.03 | 92 | 1009.0 |
| 20260509011414 | 27 | 37 | 0.0 | 11.3 | 0.00 | 0.00 | 0.03 | 92 | 1009.0 |
| 20260509010913 | 27 | 23 | 8.0 | 11.3 | 0.00 | 0.00 | 0.03 | 92 | 1008.0 |
| 20260509010414 | 27 | 1 | 3.2 | 8.0 | 0.00 | 0.00 | 0.03 | 92 | 1008.0 |
| 20260509005914 | 27 | 360 | 1.6 | 8.0 | 0.00 | 0.00 | 0.03 | 92 | 1008.0 |
| 20260509005413 | 27 | 4 | 0.0 | 4.8 | 0.00 | 0.00 | 0.03 | 92 | 1008.0 |
| 20260509004913 | 26 | 21 | 0.0 | 3.2 | 0.00 | 0.00 | 0.03 | 92 | 1008.0 |
| 20260509004414 | 26 | 19 | 0.0 | 1.6 | 0.00 | 0.00 | 0.03 | 93 | 1008.0 |
| 20260509003913 | 26 | 19 | 0.0 | 4.8 | 0.00 | 0.00 | 0.03 | 93 | 1008.0 |
| 20260509003415 | 26 | 15 | 0.0 | 4.8 | 0.00 | 0.00 | 0.03 | 92 | 1008.0 |
| 20260509002914 | 26 | 37 | 1.6 | 6.4 | 0.00 | 0.00 | 0.03 | 92 | 1008.0 |
| 20260509002414 | 26 | 8 | 0.0 | 6.4 | 0.00 | 0.00 | 0.03 | 92 | 1008.0 |
| 20260509001917 | 26 | 34 | 0.0 | 9.7 | 0.00 | 0.00 | 0.03 | 92 | 1008.0 |
| 20260509001416 | 26 | 32 | 0.0 | 9.7 | 0.00 | 0.00 | 0.03 | 92 | 1007.0 |
| 20260509000915 | 26 | 15 | 1.6 | 8.0 | 0.00 | 0.00 | 0.03 | 92 | 1007.0 |
| 20260509000414 | 26 | 32 | 0.0 | 11.3 | 0.00 | 0.00 | 0.03 | 92 | 1007.0 |
| 20260508235915 | 26 | 46 | 4.8 | 11.3 | 0.00 | 0.00 | 0.03 | 92 | 1007.0 |
| 20260508235416 | 26 | 12 | 4.8 | 12.9 | 0.00 | 0.00 | 0.03 | 92 | 1007.0 |
| 20260508234915 | 27 | 78 | 0.0 | 12.9 | 0.00 | 0.00 | 0.03 | 92 | 1008.0 |
| 20260508234414 | 27 | 49 | 1.6 | 6.4 | 0.00 | 0.00 | 0.00 | 92 | 1007.0 |
| 20260508233913 | 27 | 49 | 0.0 | 6.4 | 0.00 | 0.00 | 0.00 | 91 | 1008.0 |
| 20260508233413 | 27 | 74 | 0.0 | 8.0 | 0.00 | 0.00 | 0.00 | 91 | 1007.0 |
| 20260508232915 | 27 | 44 | 1.6 | 8.0 | 0.00 | 0.00 | 0.00 | 91 | 1007.0 |
| 20260508232416 | 27 | 2 | 0.0 | 6.4 | 0.00 | 0.00 | 0.00 | 91 | 1007.0 |
| 20260508231914 | 27 | 326 | 0.0 | 6.4 | 0.00 | 0.00 | 0.00 | 91 | 1007.0 |
| 20260508231414 | 27 | 5 | 0.0 | 6.4 | 0.00 | 0.00 | 0.00 | 91 | 1007.0 |
| 20260508230915 | 27 | 295 | 0.0 | 9.7 | 0.00 | 0.00 | 0.00 | 91 | 1007.0 |
| 20260508230414 | 27 | 359 | 4.8 | 9.7 | 0.00 | 0.00 | 0.00 | 91 | 1007.0 |
| 20260508225913 | 27 | 329 | 0.0 | 1.6 | 0.00 | 0.00 | 0.00 | 91 | 1007.0 |
| 20260508225414 | 27 | 300 | 0.0 | 3.2 | 0.00 | 0.00 | 0.00 | 92 | 1007.0 |
| 20260508224913 | 27 | 353 | 0.0 | 3.2 | 0.00 | 0.00 | 0.00 | 91 | 1007.0 |
| 20260508224414 | 27 | 298 | 0.0 | 3.2 | 0.00 | 0.00 | 0.00 | 91 | 1007.0 |
| 20260508223915 | 27 | 295 | 0.0 | 1.6 | 0.00 | 0.00 | 0.00 | 91 | 1007.0 |
| 20260508223418 | 27 | 282 | 0.0 | 1.6 | 0.00 | 0.00 | 0.00 | 91 | 1007.0 |
| 20260508222916 | 27 | 283 | 0.0 | 1.6 | 0.00 | 0.00 | 0.00 | 91 | 1007.0 |
| 20260508222415 | 27 | 293 | 0.0 | 4.8 | 0.00 | 0.00 | 0.00 | 91 | 1007.0 |
| 20260508221914 | 27 | 303 | 0.0 | 4.8 | 0.00 | 0.00 | 0.00 | 91 | 1007.0 |
| 20260508221414 | 27 | 281 | 0.0 | 3.2 | 0.00 | 0.00 | 0.00 | 91 | 1007.0 |
| 20260508220917 | 27 | 330 | 0.0 | 3.2 | 0.00 | 0.00 | 0.00 | 91 | 1007.0 |
| 20260508220415 | 27 | 328 | 0.0 | 3.2 | 0.00 | 0.00 | 0.00 | 91 | 1007.0 |
| 20260508215914 | 27 | 339 | 0.0 | 3.2 | 0.00 | 0.00 | 0.00 | 91 | 1007.0 |
| 20260508215417 | 27 | 298 | 0.0 | 1.6 | 0.00 | 0.00 | 0.00 | 91 | 1007.0 |
| 20260508214921 | 27 | 340 | 0.0 | 3.2 | 0.00 | 0.00 | 0.00 | 91 | 1007.0 |
| 20260508214417 | 27 | 333 | 0.0 | 6.4 | 0.00 | 0.00 | 0.00 | 91 | 1007.0 |
| 20260508213919 | 27 | 38 | 0.0 | 6.4 | 0.00 | 0.00 | 0.00 | 91 | 1007.0 |
| 20260508213414 | 27 | 291 | 0.0 | 6.4 | 0.00 | 0.00 | 0.00 | 91 | 1007.0 |
| 20260508212915 | 27 | 319 | 3.2 | 8.0 | 0.00 | 0.00 | 0.00 | 91 | 1007.0 |
| 20260508212414 | 27 | 13 | 0.0 | 8.0 | 0.00 | 0.00 | 0.00 | 91 | 1007.0 |
| 20260508211917 | 27 | 30 | 0.0 | 8.0 | 0.00 | 0.00 | 0.00 | 91 | 1007.0 |
| 20260508211416 | 27 | 7 | 4.8 | 8.0 | 0.00 | 0.00 | 0.00 | 91 | 1007.0 |
| 20260508210917 | 27 | 341 | 4.8 | 8.0 | 0.00 | 0.00 | 0.00 | 91 | 1007.0 |
| 20260508210415 | 27 | 343 | 0.0 | 8.0 | 0.00 | 0.00 | 0.00 | 91 | 1007.0 |
| 20260508205914 | 27 | 331 | 0.0 | 9.7 | 0.00 | 0.00 | 0.00 | 91 | 1007.0 |
| 20260508205415 | 27 | 312 | 0.0 | 9.7 | 0.00 | 0.00 | 0.00 | 91 | 1007.0 |
| 20260508204915 | 27 | 350 | 6.4 | 9.7 | 0.00 | 0.00 | 0.00 | 91 | 1007.0 |
| 20260508204416 | 27 | 328 | 6.4 | 9.7 | 0.00 | 0.00 | 0.00 | 91 | 1007.0 |
| 20260508203915 | 27 | 344 | 6.4 | 6.4 | 0.00 | 0.00 | 0.00 | 91 | 1007.0 |
| 20260508203414 | 27 | 356 | 0.0 | 6.4 | 0.00 | 0.00 | 0.00 | 91 | 1007.0 |
| 20260508202914 | 27 | 28 | 0.0 | 6.4 | 0.00 | 0.00 | 0.00 | 91 | 1007.0 |
| 20260508202415 | 27 | 348 | 4.8 | 4.8 | 0.00 | 0.00 | 0.00 | 90 | 1007.0 |
| 20260508201915 | 27 | 335 | 0.0 | 4.8 | 0.00 | 0.00 | 0.00 | 91 | 1007.0 |
| 20260508201414 | 27 | 346 | 0.0 | 4.8 | 0.00 | 0.00 | 0.00 | 91 | 1007.0 |
| 20260508200915 | 27 | 11 | 0.0 | 4.8 | 0.00 | 0.00 | 0.00 | 91 | 1008.0 |
| 20260508200416 | 27 | 352 | 0.0 | 4.8 | 0.00 | 0.00 | 0.00 | 90 | 1007.0 |
| 20260508195914 | 28 | 345 | 0.0 | 0.0 | 0.00 | 0.00 | 0.00 | 91 | 1007.0 |
| 20260508195416 | 27 | 8 | 0.0 | 1.6 | 0.00 | 0.00 | 0.00 | 90 | 1007.0 |
| 20260508194917 | 27 | 12 | 0.0 | 1.6 | 0.00 | 0.00 | 0.00 | 91 | 1008.0 |
| 20260508194416 | 27 | 15 | 0.0 | 3.2 | 0.00 | 0.00 | 0.00 | 91 | 1008.0 |
| 20260508193915 | 27 | 11 | 0.0 | 4.8 | 0.00 | 0.00 | 0.00 | 91 | 1008.0 |
| 20260508193415 | 28 | 340 | 1.6 | 4.8 | 0.00 | 0.00 | 0.00 | 91 | 1008.0 |
| 20260508192917 | 28 | 4 | 1.6 | 6.4 | 0.00 | 0.00 | 0.00 | 90 | 1008.0 |
| 20260508192417 | 28 | 338 | 3.2 | 6.4 | 0.00 | 0.00 | 0.00 | 90 | 1008.0 |
| 20260508191913 | 28 | 333 | 1.6 | 6.4 | 0.00 | 0.00 | 0.00 | 90 | 1008.0 |
| 20260508191416 | 28 | 324 | 0.0 | 8.0 | 0.00 | 0.00 | 0.00 | 90 | 1008.0 |
| 20260508190914 | 28 | 304 | 0.0 | 8.0 | 0.00 | 0.00 | 0.00 | 90 | 1008.0 |
| 20260508190418 | 28 | 319 | 0.0 | 6.4 | 0.00 | 0.00 | 0.00 | 89 | 1008.0 |
| 20260508185915 | 28 | 297 | 0.0 | 3.2 | 0.00 | 0.00 | 0.00 | 88 | 1008.0 |
| 20260508185416 | 28 | 276 | 0.0 | 1.6 | 0.00 | 0.00 | 0.00 | 87 | 1008.0 |
| 20260508184917 | 28 | 290 | 0.0 | 0.0 | 0.00 | 0.00 | 0.00 | 87 | 1008.0 |
| 20260508184414 | 28 | 90 | 0.0 | 0.0 | 0.00 | 0.00 | 0.00 | 86 | 1008.0 |
| 20260508183915 | 28 | 90 | 0.0 | 0.0 | 0.00 | 0.00 | 0.00 | 86 | 1009.0 |
| 20260508183415 | 28 | 90 | 0.0 | 0.0 | 0.00 | 0.00 | 0.00 | 86 | 1009.0 |
| 20260508182915 | 28 | 90 | 0.0 | 0.0 | 0.00 | 0.00 | 0.00 | 86 | 1009.0 |
| 20260508182418 | 28 | 90 | 0.0 | 0.0 | 0.00 | 0.00 | 0.00 | 86 | 1009.0 |
| 20260508181913 | 28 | 90 | 0.0 | 0.0 | 0.00 | 0.00 | 0.00 | 86 | 1009.0 |
| 20260508181414 | 28 | 90 | 0.0 | 0.0 | 0.00 | 0.00 | 0.00 | 86 | 1009.0 |
| 20260508180913 | 28 | 95 | 0.0 | 0.0 | 0.00 | 0.00 | 0.00 | 86 | 1009.0 |
| 20260508180415 | 28 | 95 | 0.0 | 0.0 | 0.00 | 0.00 | 0.00 | 86 | 1009.0 |
| 20260508175915 | 28 | 95 | 0.0 | 0.0 | 0.00 | 0.00 | 0.00 | 86 | 1009.0 |
| 20260508175416 | 28 | 100 | 0.0 | 6.4 | 0.00 | 0.00 | 0.00 | 86 | 1009.0 |
| 20260508174915 | 28 | 89 | 0.0 | 6.4 | 0.00 | 0.00 | 0.00 | 86 | 1009.0 |
| 20260508174417 | 28 | 101 | 0.0 | 3.2 | 0.00 | 0.00 | 0.00 | 86 | 1009.0 |
| 20260508173915 | 28 | 98 | 0.0 | 0.0 | 0.00 | 0.00 | 0.00 | 86 | 1009.0 |
| 20260508173416 | 28 | 98 | 0.0 | 0.0 | 0.00 | 0.00 | 0.00 | 86 | 1009.0 |
| 20260508172914 | 28 | 98 | 0.0 | 4.8 | 0.00 | 0.00 | 0.00 | 85 | 1009.0 |
| 20260508172414 | 28 | 118 | 0.0 | 4.8 | 0.00 | 0.00 | 0.00 | 86 | 1009.0 |
| 20260508171915 | 28 | 139 | 0.0 | 1.6 | 0.00 | 0.00 | 0.00 | 86 | 1009.0 |
| 20260508171414 | 28 | 96 | 0.0 | 1.6 | 0.00 | 0.00 | 0.00 | 86 | 1009.0 |
| 20260508170914 | 28 | 94 | 0.0 | 3.2 | 0.00 | 0.00 | 0.00 | 86 | 1009.0 |
| 20260508170416 | 28 | 116 | 0.0 | 3.2 | 0.00 | 0.00 | 0.00 | 86 | 1009.0 |
| 20260508165914 | 28 | 77 | 0.0 | 1.6 | 0.00 | 0.00 | 0.00 | 86 | 1009.0 |
| 20260508165414 | 28 | 79 | 0.0 | 1.6 | 0.00 | 0.00 | 0.00 | 86 | 1009.0 |
| 20260508164918 | 28 | 83 | 0.0 | 1.6 | 0.00 | 0.00 | 0.00 | 87 | 1009.0 |
| 20260508164417 | 28 | 103 | 0.0 | 0.0 | 0.00 | 0.00 | 0.00 | 87 | 1009.0 |
| 20260508163917 | 28 | 103 | 0.0 | 0.0 | 0.00 | 0.00 | 0.00 | 87 | 1009.0 |
| 20260508163416 | 28 | 103 | 0.0 | 6.4 | 0.00 | 0.00 | 0.00 | 87 | 1009.0 |
| 20260508162914 | 28 | 103 | 0.0 | 6.4 | 0.00 | 0.00 | 0.00 | 87 | 1009.0 |
| 20260508162415 | 28 | 86 | 0.0 | 4.8 | 0.00 | 0.00 | 0.00 | 86 | 1009.0 |
| 20260508161914 | 28 | 87 | 0.0 | 6.4 | 0.00 | 0.00 | 0.00 | 86 | 1009.0 |
| 20260508161415 | 28 | 111 | 0.0 | 8.0 | 0.00 | 0.00 | 0.00 | 86 | 1009.0 |
| 20260508160915 | 28 | 98 | 1.6 | 6.4 | 0.00 | 0.00 | 0.00 | 86 | 1009.0 |
| 20260508160417 | 28 | 77 | 0.0 | 6.4 | 0.00 | 0.00 | 0.00 | 86 | 1009.0 |
| 20260508155914 | 28 | 108 | 0.0 | 6.4 | 0.00 | 0.00 | 0.00 | 85 | 1009.0 |
| 20260508155415 | 28 | 94 | 0.0 | 6.4 | 0.00 | 0.00 | 0.00 | 86 | 1009.0 |
| 20260508154915 | 28 | 98 | 0.0 | 6.4 | 0.00 | 0.00 | 0.00 | 86 | 1009.0 |
| 20260508154417 | 28 | 58 | 0.0 | 6.4 | 0.00 | 0.00 | 0.00 | 86 | 1009.0 |
| 20260508153917 | 28 | 86 | 0.0 | 6.4 | 0.00 | 0.00 | 0.00 | 86 | 1009.0 |
| 20260508153417 | 28 | 91 | 1.6 | 8.0 | 0.00 | 0.00 | 0.00 | 86 | 1009.0 |
| 20260508152916 | 28 | 86 | 6.4 | 9.7 | 0.00 | 0.00 | 0.00 | 86 | 1009.0 |
| 20260508152416 | 28 | 78 | 0.0 | 9.7 | 0.00 | 0.00 | 0.00 | 86 | 1009.0 |
| 20260508151918 | 28 | 83 | 0.0 | 9.7 | 0.00 | 0.00 | 0.00 | 85 | 1009.0 |
| 20260508151416 | 28 | 41 | 0.0 | 9.7 | 0.00 | 0.00 | 0.00 | 86 | 1009.0 |
| 20260508150915 | 28 | 71 | 0.0 | 9.7 | 0.00 | 0.00 | 0.00 | 85 | 1008.0 |
| 20260508150419 | 28 | 68 | 0.0 | 16.1 | 0.00 | 0.00 | 0.00 | 85 | 1008.0 |
| 20260508145914 | 28 | 71 | 0.0 | 16.1 | 0.00 | 0.00 | 0.00 | 86 | 1009.0 |
| 20260508145413 | 28 | 88 | 6.4 | 16.1 | 0.00 | 0.00 | 0.00 | 86 | 1009.0 |
| 20260508144915 | 28 | 110 | 1.6 | 11.3 | 0.00 | 0.00 | 0.00 | 87 | 1009.0 |
| 20260508144416 | 28 | 72 | 0.0 | 12.9 | 0.00 | 0.00 | 0.00 | 87 | 1009.0 |
| 20260508143917 | 28 | 76 | 3.2 | 12.9 | 0.00 | 0.00 | 0.00 | 87 | 1008.0 |
| 20260508143415 | 28 | 65 | 0.0 | 12.9 | 0.00 | 0.00 | 0.00 | 87 | 1008.0 |
| 20260508142916 | 28 | 44 | 0.0 | 14.5 | 0.00 | 0.00 | 0.00 | 86 | 1008.0 |
| 20260508142417 | 28 | 92 | 1.6 | 14.5 | 0.00 | 0.00 | 0.00 | 86 | 1008.0 |
| 20260508141915 | 29 | 94 | 6.4 | 9.7 | 0.00 | 0.00 | 0.00 | 86 | 1008.0 |
| 20260508141415 | 29 | 46 | 0.0 | 9.7 | 0.00 | 0.00 | 0.00 | 86 | 1008.0 |
| 20260508140915 | 29 | 72 | 0.0 | 11.3 | 0.00 | 0.00 | 0.00 | 86 | 1008.0 |
| 20260508140416 | 29 | 80 | 0.0 | 12.9 | 0.00 | 0.00 | 0.00 | 86 | 1008.0 |
| 20260508135916 | 29 | 85 | 9.7 | 12.9 | 0.00 | 0.00 | 0.00 | 86 | 1008.0 |
| 20260508135413 | 29 | 82 | 4.8 | 11.3 | 0.00 | 0.00 | 0.00 | 86 | 1008.0 |
| 20260508134916 | 29 | 98 | 8.0 | 12.9 | 0.00 | 0.00 | 0.00 | 85 | 1008.0 |
| 20260508134414 | 29 | 60 | 0.0 | 12.9 | 0.00 | 0.00 | 0.00 | 86 | 1008.0 |
| 20260508133917 | 29 | 81 | 0.0 | 12.9 | 0.00 | 0.00 | 0.00 | 86 | 1008.0 |
| 20260508133415 | 29 | 75 | 8.0 | 16.1 | 0.00 | 0.00 | 0.00 | 85 | 1008.0 |
| 20260508132915 | 29 | 63 | 1.6 | 16.1 | 0.00 | 0.00 | 0.00 | 85 | 1008.0 |
| 20260508132415 | 29 | 51 | 6.4 | 14.5 | 0.00 | 0.00 | 0.00 | 85 | 1008.0 |
| 20260508131917 | 29 | 71 | 11.3 | 14.5 | 0.00 | 0.00 | 0.00 | 84 | 1007.0 |
| 20260508131415 | 29 | 20 | 6.4 | 14.5 | 0.00 | 0.00 | 0.00 | 84 | 1007.0 |
| 20260508130916 | 29 | 70 | 12.9 | 19.3 | 0.00 | 0.00 | 0.00 | 84 | 1007.0 |
| 20260508130416 | 29 | 80 | 11.3 | 19.3 | 0.00 | 0.00 | 0.00 | 83 | 1007.0 |
| 20260508125918 | 29 | 103 | 1.6 | 14.5 | 0.00 | 0.00 | 0.00 | 83 | 1007.0 |
| 20260508125415 | 30 | 34 | 14.5 | 16.1 | 0.00 | 0.00 | 0.00 | 83 | 1007.0 |
| 20260508124915 | 30 | 58 | 3.2 | 16.1 | 0.00 | 0.00 | 0.00 | 83 | 1007.0 |
| 20260508124415 | 30 | 92 | 1.6 | 16.1 | 0.00 | 0.00 | 0.00 | 83 | 1007.0 |
| 20260508123916 | 30 | 59 | 12.9 | 17.7 | 0.00 | 0.00 | 0.00 | 82 | 1007.0 |
| 20260508123421 | 30 | 38 | 12.9 | 19.3 | 0.00 | 0.00 | 0.00 | 82 | 1007.0 |
| 20260508122915 | 30 | 66 | 11.3 | 20.9 | 0.00 | 0.00 | 0.00 | 82 | 1007.0 |
| 20260508122415 | 30 | 76 | 11.3 | 20.9 | 0.00 | 0.00 | 0.00 | 80 | 1007.0 |
| 20260508121915 | 30 | 56 | 8.0 | 20.9 | 0.00 | 0.00 | 0.00 | 80 | 1007.0 |
| 20260508121415 | 30 | 60 | 14.5 | 24.1 | 0.00 | 0.00 | 0.00 | 79 | 1007.0 |
| 20260508120917 | 30 | 56 | 8.0 | 24.1 | 0.00 | 0.00 | 0.00 | 78 | 1007.0 |
| 20260508120414 | 30 | 95 | 4.8 | 22.5 | 0.00 | 0.00 | 0.00 | 78 | 1007.0 |
| 20260508115916 | 30 | 75 | 1.6 | 20.9 | 0.00 | 0.00 | 0.00 | 76 | 1007.0 |
| 20260508115417 | 30 | 63 | 14.5 | 17.7 | 0.00 | 0.00 | 0.00 | 76 | 1007.0 |
| 20260508114915 | 30 | 103 | 0.0 | 16.1 | 0.00 | 0.00 | 0.00 | 76 | 1007.0 |
| 20260508114413 | 30 | 88 | 4.8 | 17.7 | 0.00 | 0.00 | 0.00 | 75 | 1006.0 |
| 20260508113916 | 31 | 98 | 9.7 | 20.9 | 0.00 | 0.00 | 0.00 | 76 | 1006.0 |
| 20260508113417 | 31 | 70 | 11.3 | 20.9 | 0.00 | 0.00 | 0.00 | 74 | 1006.0 |
| 20260508112916 | 31 | 96 | 9.7 | 20.9 | 0.00 | 0.00 | 0.00 | 72 | 1006.0 |
| 20260508112417 | 31 | 49 | 0.0 | 27.4 | 0.00 | 0.00 | 0.00 | 70 | 1006.0 |
| 20260508111916 | 31 | 63 | 14.5 | 27.4 | 0.00 | 0.00 | 0.00 | 69 | 1006.0 |
| 20260508111417 | 31 | 39 | 0.0 | 22.5 | 0.00 | 0.00 | 0.00 | 70 | 1006.0 |
| 20260508110914 | 31 | 53 | 17.7 | 22.5 | 0.00 | 0.00 | 0.00 | 70 | 1006.0 |
| 20260508110415 | 31 | 65 | 6.4 | 19.3 | 0.00 | 0.00 | 0.00 | 69 | 1006.0 |
| 20260508105917 | 31 | 61 | 12.9 | 25.7 | 0.00 | 0.00 | 0.00 | 69 | 1006.0 |
| 20260508105415 | 31 | 86 | 20.9 | 25.7 | 0.00 | 0.00 | 0.00 | 69 | 1006.0 |
| 20260508104914 | 31 | 101 | 8.0 | 24.1 | 0.00 | 0.00 | 0.00 | 68 | 1006.0 |
| 20260508104416 | 31 | 70 | 0.0 | 24.1 | 0.00 | 0.00 | 0.00 | 68 | 1006.0 |
| 20260508103916 | 32 | 70 | 16.1 | 22.5 | 0.00 | 0.00 | 0.00 | 69 | 1006.0 |
| 20260508103415 | 32 | 62 | 12.9 | 19.3 | 0.00 | 0.00 | 0.00 | 70 | 1006.0 |
| 20260508102915 | 31 | 49 | 8.0 | 19.3 | 0.00 | 0.00 | 0.00 | 70 | 1006.0 |
| 20260508102417 | 31 | 46 | 12.9 | 20.9 | 0.00 | 0.00 | 0.00 | 70 | 1007.0 |
| 20260508101915 | 31 | 39 | 6.4 | 20.9 | 0.00 | 0.00 | 0.00 | 72 | 1006.0 |
| 20260508101415 | 31 | 94 | 11.3 | 19.3 | 0.00 | 0.00 | 0.00 | 71 | 1007.0 |
| 20260508100917 | 31 | 94 | 8.0 | 19.3 | 0.00 | 0.00 | 0.00 | 72 | 1007.0 |
| 20260508100416 | 31 | 42 | 6.4 | 19.3 | 0.00 | 0.00 | 0.00 | 74 | 1007.0 |
| 20260508095916 | 31 | 36 | 4.8 | 19.3 | 0.00 | 0.00 | 0.00 | 75 | 1007.0 |
| 20260508095417 | 31 | 60 | 8.0 | 19.3 | 0.00 | 0.00 | 0.00 | 75 | 1007.0 |
| 20260508094913 | 31 | 77 | 16.1 | 22.5 | 0.00 | 0.00 | 0.00 | 76 | 1007.0 |
| 20260508094416 | 31 | 48 | 12.9 | 22.5 | 0.00 | 0.00 | 0.00 | 75 | 1007.0 |
| 20260508093917 | 31 | 70 | 14.5 | 19.3 | 0.00 | 0.00 | 0.00 | 75 | 1007.0 |
| 20260508093414 | 31 | 75 | 14.5 | 19.3 | 0.00 | 0.00 | 0.00 | 75 | 1007.0 |
| 20260508092917 | 31 | 44 | 1.6 | 20.9 | 0.00 | 0.00 | 0.00 | 77 | 1007.0 |
| 20260508092417 | 31 | 65 | 1.6 | 25.7 | 0.00 | 0.00 | 0.00 | 76 | 1007.0 |
| 20260508091917 | 31 | 52 | 6.4 | 22.5 | 0.00 | 0.00 | 0.00 | 78 | 1007.0 |
| 20260508091416 | 31 | 79 | 6.4 | 22.5 | 0.00 | 0.00 | 0.00 | 77 | 1007.0 |
| 20260508090915 | 31 | 93 | 9.7 | 19.3 | 0.00 | 0.00 | 0.00 | 77 | 1007.0 |
| 20260508090414 | 31 | 77 | 9.7 | 19.3 | 0.00 | 0.00 | 0.00 | 77 | 1007.0 |
| 20260508085916 | 31 | 63 | 17.7 | 19.3 | 0.00 | 0.00 | 0.00 | 77 | 1007.0 |
| 20260508085417 | 30 | 1 | 0.0 | 24.1 | 0.00 | 0.00 | 0.00 | 78 | 1007.0 |
| 20260508084915 | 31 | 62 | 11.3 | 24.1 | 0.00 | 0.00 | 0.00 | 78 | 1007.0 |
| 20260508084418 | 31 | 49 | 4.8 | 19.3 | 0.00 | 0.00 | 0.00 | 78 | 1007.0 |
| 20260508083916 | 31 | 63 | 11.3 | 20.9 | 0.00 | 0.00 | 0.00 | 78 | 1007.0 |
| 20260508083415 | 31 | 60 | 11.3 | 20.9 | 0.00 | 0.00 | 0.00 | 78 | 1007.0 |
| 20260508082915 | 30 | 58 | 3.2 | 17.7 | 0.00 | 0.00 | 0.00 | 79 | 1007.0 |
| 20260508082418 | 30 | 113 | 8.0 | 24.1 | 0.00 | 0.00 | 0.00 | 80 | 1007.0 |
| 20260508081915 | 30 | 76 | 16.1 | 24.1 | 0.00 | 0.00 | 0.00 | 79 | 1007.0 |
| 20260508081415 | 31 | 49 | 4.8 | 22.5 | 0.00 | 0.00 | 0.00 | 79 | 1007.0 |
| 20260508080915 | 31 | 96 | 9.7 | 27.4 | 0.00 | 0.00 | 0.00 | 80 | 1007.0 |
| 20260508080414 | 31 | 60 | 8.0 | 27.4 | 0.00 | 0.00 | 0.00 | 80 | 1007.0 |
| 20260508075917 | 30 | 108 | 0.0 | 22.5 | 0.00 | 0.00 | 0.00 | 81 | 1007.0 |
| 20260508075417 | 30 | 46 | 16.1 | 22.5 | 0.00 | 0.00 | 0.00 | 81 | 1007.0 |
| 20260508074918 | 30 | 92 | 16.1 | 19.3 | 0.00 | 0.00 | 0.00 | 80 | 1007.0 |
| 20260508074415 | 30 | 46 | 12.9 | 24.1 | 0.00 | 0.00 | 0.00 | 82 | 1008.0 |
| 20260508073916 | 30 | 77 | 0.0 | 24.1 | 0.00 | 0.00 | 0.00 | 82 | 1007.0 |
| 20260508073418 | 30 | 72 | 19.3 | 24.1 | 0.00 | 0.00 | 0.00 | 82 | 1008.0 |
| 20260508072914 | 30 | 55 | 11.3 | 24.1 | 0.00 | 0.00 | 0.00 | 83 | 1008.0 |
| 20260508072416 | 30 | 60 | 20.9 | 24.1 | 0.00 | 0.00 | 0.00 | 82 | 1008.0 |
| 20260508071917 | 30 | 56 | 6.4 | 32.2 | 0.00 | 0.00 | 0.00 | 83 | 1008.0 |
| 20260508071415 | 30 | 83 | 8.0 | 32.2 | 0.00 | 0.00 | 0.00 | 84 | 1008.0 |
| 20260508070914 | 30 | 80 | 4.8 | 27.4 | 0.00 | 0.00 | 0.00 | 83 | 1008.0 |
| 20260508070415 | 30 | 58 | 22.5 | 29.0 | 0.00 | 0.00 | 0.00 | 83 | 1008.0 |
| 20260508065914 | 30 | 96 | 16.1 | 29.0 | 0.00 | 0.00 | 0.00 | 82 | 1008.0 |
| 20260508065414 | 30 | 56 | 17.7 | 29.0 | 0.00 | 0.00 | 0.00 | 81 | 1009.0 |
| 20260508064915 | 30 | 107 | 14.5 | 29.0 | 0.00 | 0.00 | 0.00 | 81 | 1009.0 |
| 20260508064419 | 30 | 94 | 8.0 | 27.4 | 0.00 | 0.00 | 0.00 | 84 | 1009.0 |
| 20260508063915 | 30 | 113 | 6.4 | 29.0 | 0.00 | 0.00 | 0.00 | 84 | 1009.0 |
| 20260508063415 | 30 | 129 | 9.7 | 29.0 | 0.00 | 0.00 | 0.00 | 84 | 1009.0 |
| 20260508062918 | 30 | 99 | 24.1 | 27.4 | 0.00 | 0.00 | 0.00 | 83 | 1009.0 |
| 20260508062414 | 30 | 60 | 16.1 | 29.0 | 0.00 | 0.00 | 0.00 | 84 | 1009.0 |
| 20260508061914 | 30 | 53 | 6.4 | 29.0 | 0.00 | 0.00 | 0.00 | 84 | 1009.0 |
| 20260508061413 | 30 | 14 | 8.0 | 32.2 | 0.00 | 0.00 | 0.00 | 85 | 1009.0 |
| 20260508060915 | 30 | 77 | 11.3 | 32.2 | 0.00 | 0.00 | 0.00 | 84 | 1009.0 |
| 20260508060416 | 30 | 79 | 20.9 | 30.6 | 0.00 | 0.00 | 0.00 | 85 | 1009.0 |
| 20260508055917 | 30 | 77 | 24.1 | 27.4 | 0.00 | 0.00 | 0.00 | 84 | 1009.0 |
| 20260508055416 | 30 | 113 | 22.5 | 25.7 | 0.00 | 0.00 | 0.00 | 86 | 1009.0 |
| 20260508054913 | 30 | 100 | 19.3 | 25.7 | 0.00 | 0.00 | 0.00 | 85 | 1009.0 |
| 20260508054415 | 30 | 94 | 8.0 | 27.4 | 0.00 | 0.00 | 0.00 | 84 | 1010.0 |
| 20260508053917 | 30 | 51 | 6.4 | 27.4 | 0.00 | 0.00 | 0.00 | 85 | 1009.0 |
| 20260508053415 | 30 | 53 | 8.0 | 27.4 | 0.00 | 0.00 | 0.00 | 83 | 1009.0 |
| 20260508052918 | 31 | 78 | 20.9 | 24.1 | 0.00 | 0.00 | 0.00 | 83 | 1009.0 |
| 20260508052414 | 31 | 82 | 9.7 | 20.9 | 0.00 | 0.00 | 0.00 | 83 | 1009.0 |
| 20260508051915 | 31 | 48 | 6.4 | 20.9 | 0.00 | 0.00 | 0.00 | 82 | 1009.0 |
| 20260508051414 | 31 | 40 | 14.5 | 20.9 | 0.00 | 0.00 | 0.00 | 81 | 1009.0 |
| 20260508050915 | 31 | 68 | 11.3 | 22.5 | 0.00 | 0.00 | 0.00 | 82 | 1009.0 |
| 20260508050414 | 31 | 77 | 3.2 | 25.7 | 0.00 | 0.00 | 0.00 | 83 | 1009.0 |
| 20260508045917 | 31 | 58 | 20.9 | 25.7 | 0.00 | 0.00 | 0.00 | 84 | 1009.0 |
| 20260508045413 | 31 | 102 | 20.9 | 22.5 | 0.00 | 0.00 | 0.00 | 83 | 1009.0 |
| 20260508044914 | 31 | 93 | 9.7 | 19.3 | 0.00 | 0.00 | 0.00 | 83 | 1009.0 |
| 20260508044414 | 31 | 113 | 17.7 | 24.1 | 0.00 | 0.00 | 0.00 | 82 | 1009.0 |
| 20260508043914 | 31 | 113 | 3.2 | 24.1 | 0.00 | 0.00 | 0.00 | 82 | 1009.0 |
| 20260508043418 | 31 | 105 | 0.0 | 22.5 | 0.00 | 0.00 | 0.00 | 83 | 1009.0 |
| 20260508042913 | 31 | 120 | 0.0 | 14.5 | 0.00 | 0.00 | 0.00 | 84 | 1009.0 |
| 20260508042414 | 31 | 125 | 0.0 | 14.5 | 0.00 | 0.00 | 0.00 | 85 | 1009.0 |
| 20260508041914 | 31 | 106 | 0.0 | 9.7 | 0.00 | 0.00 | 0.00 | 84 | 1009.0 |
| 20260508041417 | 31 | 133 | 0.0 | 9.7 | 0.00 | 0.00 | 0.00 | 84 | 1009.0 |
| 20260508040915 | 31 | 124 | 0.0 | 0.0 | 0.00 | 0.00 | 0.00 | 82 | 1009.0 |
| 20260508040417 | 31 | 124 | 0.0 | 0.0 | 0.00 | 0.00 | 0.00 | 83 | 1009.0 |
| 20260508035915 | 31 | 113 | 0.0 | 0.0 | 0.00 | 0.00 | 0.00 | 82 | 1009.0 |
| 20260508035415 | 31 | 155 | 0.0 | 0.0 | 0.00 | 0.00 | 0.00 | 81 | 1009.0 |
| 20260508034914 | 31 | 134 | 0.0 | 0.0 | 0.00 | 0.00 | 0.00 | 82 | 1009.0 |